Weather History for Ostrava, Czech Republic

Change the Weather History Date:

Tuesday, December 25, 2012

  Actual Average (EPKT) Record (EPKT)
Temperature  
Mean Temperature 35 °F -  
Max Temperature 38 °F 34 °F 52 °F (2013)
Min Temperature 32 °F 23 °F -2 °F (2002)
Degree Days  
Heating Degree Days 30    
Moisture  
Dew Point 34 °F    
Average Humidity 94    
Maximum Humidity 100    
Minimum Humidity 87    
Precipitation  
Precipitation 0.00 in 0.04 in - ()
Sea Level Pressure  
Sea Level Pressure 29.81 in    
Wind  
Wind Speed 15 mph ()    
Max Wind Speed 22 mph    
Max Gust Speed -    
Visibility 3.4 miles    
Events      
Averages and records for this station are not official NWS values.
T = Trace of Precipitation, MM = Missing Value Source: Averaged Metar Reports

Daily Weather History Graph

Daily Weather History Graph

Search for Another Location

Airport:

Trip Planner

Search our weather history database for the weather conditions in past years. The results will help you decide how hot, cold, wet, or windy it might be!

Date:

Astronomy

Dec. 25, 2012 Rise Set
Actual Time 7:43 AM CET 3:51 PM CET
Civil Twilight 7:05 AM CET 4:29 PM CET
Nautical Twilight 6:24 AM CET 5:11 PM CET
Astronomical Twilight 5:45 AM CET 5:50 PM CET
Moon 1:51 PM CET (12/25) 4:54 AM CET (12/25)
Length of Visible Light 9h 24m
Length of Day
8h 08m
Waxing Gibbous, 92% of the Moon is Illuminated
Dec 25
Waxing Gibbous
Dec 28
Full
Jan 5
Last Quarter
Jan 11
New
Jan 19
First Quarter

Hourly Weather History & Observations

Time (CET) Temp. Windchill Dew Point Humidity Pressure Visibility Wind Dir Wind Speed Gust Speed Precip Events Conditions
12:00 AM 32.0 °F 20.8 °F 30.2 °F 93% 29.86 in 5.0 mi SW 17.3 mph - N/A   Partly Cloudy
12:30 AM 32.0 °F 21.6 °F 30.2 °F 93% 29.86 in 3.7 mi SW 15.0 mph - N/A   Scattered Clouds
1:00 AM 33 °F - 32 °F 92% 29.89 in 3 mi SW 15.7 mph - -   Mist
1:00 AM 33.8 °F 23.2 °F 32.0 °F 93% 29.83 in 3.1 mi SW 17.3 mph - N/A   Partly Cloudy
1:30 AM 33.8 °F 24.3 °F 32.0 °F 93% 29.83 in 3.7 mi SW 13.8 mph - N/A   Partly Cloudy
2:00 AM 33.8 °F 24.8 °F 32.0 °F 93% 29.83 in 3.1 mi WSW 12.7 mph - N/A   Mostly Cloudy
2:30 AM 33.8 °F 24.8 °F 32.0 °F 93% 29.83 in 3.1 mi SW 12.7 mph - N/A   Overcast
3:00 AM 33.8 °F 24.3 °F 32.0 °F 93% 29.83 in 3.1 mi WSW 13.8 mph - N/A   Overcast
3:30 AM 33.8 °F 22.5 °F 32.0 °F 93% 29.83 in 3.1 mi WSW 19.6 mph - N/A   Overcast
4:00 AM 33.8 °F 21.9 °F 32.0 °F 93% 29.83 in 2.8 mi WSW 21.9 mph - N/A   Overcast
4:30 AM 33.8 °F 21.9 °F 32.0 °F 93% 29.83 in 2.8 mi SW 21.9 mph - N/A   Overcast
5:00 AM 33.8 °F 22.2 °F 33.8 °F 100% 29.83 in 3.1 mi SW 20.7 mph - N/A   Overcast
5:30 AM 33.8 °F 23.2 °F 32.0 °F 93% 29.83 in 3.1 mi SW 17.3 mph - N/A   Overcast
6:00 AM 33.8 °F 23.5 °F 33.8 °F 100% 29.80 in 3.1 mi SW 16.1 mph - N/A   Overcast
6:30 AM 33.8 °F 23.5 °F 33.8 °F 100% 29.80 in 2.8 mi SW 16.1 mph - N/A   Mostly Cloudy
7:00 AM 35 °F - 33 °F 92% 29.87 in 3 mi SW 15.7 mph - -   Mist
7:00 AM 35.6 °F 25.9 °F 33.8 °F 93% 29.83 in 2.8 mi SW 16.1 mph - N/A   Overcast
7:30 AM 35.6 °F 25.5 °F 33.8 °F 93% 29.83 in 2.2 mi WSW 17.3 mph - N/A   Overcast
8:00 AM 35.6 °F 26.2 °F 33.8 °F 93% 29.80 in 2.2 mi WSW 15.0 mph - N/A   Overcast
8:30 AM 35.6 °F 25.2 °F 33.8 °F 93% 29.80 in 2.5 mi WSW 18.4 mph - N/A   Mostly Cloudy
9:00 AM 35.6 °F 24.8 °F 33.8 °F 93% 29.80 in 2.5 mi WSW 19.6 mph - N/A   Mostly Cloudy
9:30 AM 35.6 °F 25.2 °F 33.8 °F 93% 29.80 in 3.1 mi WSW 18.4 mph - N/A   Partly Cloudy
10:00 AM 35.6 °F 25.5 °F 33.8 °F 93% 29.80 in 3.1 mi WSW 17.3 mph - N/A   Scattered Clouds
10:30 AM 37.4 °F 27.5 °F 35.6 °F 93% 29.80 in 3.7 mi WSW 18.4 mph - N/A   Mostly Cloudy
11:00 AM 37.4 °F 27.2 °F 35.6 °F 93% 29.80 in 3.7 mi WSW 19.6 mph - N/A   Scattered Clouds
11:30 AM 37.4 °F 27.8 °F 35.6 °F 93% 29.80 in 3.7 mi WSW 17.3 mph - N/A   Mostly Cloudy
12:00 PM 37.4 °F 27.5 °F 35.6 °F 93% 29.80 in 3.7 mi WSW 18.4 mph - N/A   Mostly Cloudy
12:30 PM 37.4 °F 27.5 °F 35.6 °F 93% 29.77 in 3.7 mi WSW 18.4 mph - N/A   Scattered Clouds
1:00 PM 38 °F - 36 °F 91% 29.83 in 4 mi WSW 17.9 mph - -   Mist
1:00 PM 39.2 °F 29.6 °F 35.6 °F 87% 29.77 in 3.7 mi WSW 19.6 mph - N/A   Partly Cloudy
1:30 PM 39.2 °F 29.6 °F 35.6 °F 87% 29.80 in 4.3 mi WSW 19.6 mph - N/A   Partly Cloudy
2:00 PM 39.2 °F 30.8 °F 35.6 °F 87% 29.77 in 4.3 mi WSW 15.0 mph - N/A   Partly Cloudy
2:30 PM 39.2 °F 30.5 °F 35.6 °F 87% 29.77 in 3.7 mi WSW 16.1 mph - N/A   Partly Cloudy
3:00 PM 39.2 °F 32.0 °F 35.6 °F 87% 29.77 in 4.3 mi West 11.5 mph - N/A   Partly Cloudy
3:30 PM 37.4 °F 29.3 °F 35.6 °F 93% 29.77 in 3.7 mi WSW 12.7 mph - N/A   Unknown
4:00 PM 37.4 °F 28.5 °F 35.6 °F 93% 29.77 in 3.7 mi WSW 15.0 mph - N/A   Unknown
4:30 PM 37.4 °F 28.5 °F 35.6 °F 93% 29.77 in 4.3 mi WSW 15.0 mph - N/A   Unknown
5:00 PM 37.4 °F 28.5 °F 35.6 °F 93% 29.77 in 5.0 mi WSW 15.0 mph - N/A   Unknown
5:30 PM 37.4 °F 29.3 °F 35.6 °F 93% 29.80 in 5.6 mi SW 12.7 mph - N/A   Unknown
6:00 PM 37.4 °F 27.2 °F 35.6 °F 93% 29.80 in 5.0 mi SW 19.6 mph - N/A   Unknown
6:30 PM 35.6 °F 25.5 °F 35.6 °F 100% 29.77 in 4.3 mi SW 17.3 mph - N/A   Unknown
7:00 PM 36 °F - 35 °F 96% 29.82 in 4 mi WSW 15.7 mph - -   Mist
7:00 PM 37.4 °F 27.8 °F 35.6 °F 93% 29.77 in 3.7 mi WSW 17.3 mph - N/A   Unknown
7:30 PM 35.6 °F 26.2 °F 35.6 °F 100% 29.77 in 3.1 mi WSW 15.0 mph - N/A   Mist
8:00 PM 37.4 °F 28.5 °F 35.6 °F 93% 29.77 in 3.1 mi SW 15.0 mph - N/A   Mist
8:30 PM 35.6 °F 29.2 °F 35.6 °F 100% 29.77 in 3.1 mi WSW 8.1 mph - N/A   Partly Cloudy
9:00 PM 35.6 °F 29.9 °F 35.6 °F 100% 29.80 in 3.1 mi SW 6.9 mph - N/A   Partly Cloudy
9:30 PM 35.6 °F 29.2 °F 35.6 °F 100% 29.83 in 2.8 mi WSW 8.1 mph - N/A   Partly Cloudy
10:00 PM 35.6 °F 31.7 °F 35.6 °F 100% 29.83 in 2.5 mi WSW 4.6 mph - N/A   Mostly Cloudy
10:30 PM 37.4 °F 32.1 °F 35.6 °F 93% 29.83 in 2.5 mi SW 6.9 mph - N/A   Mostly Cloudy
11:00 PM 35.6 °F 28.0 °F 35.6 °F 100% 29.86 in 2.5 mi WSW 10.4 mph - N/A   Overcast
11:30 PM 35.6 °F 27.1 °F 35.6 °F 100% 29.86 in 2.2 mi WSW 12.7 mph - N/A   Overcast